User: anonymous   Login
Location: Unspecified
(0.0000°N, 0.0000°E)
Time: 10:28:33
(UTC+00:00)
Language:

OPS 7613 P/L 1 - Orbit

View from above orbital plane
View from above orbital plane
View from above satellite
View from above satellite

Ground track
Ground track

The orbit data is extracted from the following two-line orbital elements,

1  4256U 69082B   20219.45396200 -.00000041  00000-0  85546-5 0  9994
2  4256  70.0078 239.8425 0020504 339.4948  20.5333 13.98363187591139
Epoch (UTC): 06 August 2020 10:53:42
Eccentricity: 0.0020504
inclination: 70.0078°
perigee height: 884 km
apogee height: 914 km
right ascension of ascending node: 239.8425°
argument of perigee: 339.4948°
revolutions per day: 13.98363187
mean anomaly at epoch: 20.5333°
orbit number at epoch: 59113

The dashed part of the orbit path shows where the satellite is in the earth's shadow,  

DLR